Карточка аэропорта UWKD

Внимание!
Информация на этой странице в стадии наполнения.
Если вы не увидели какой-то информации, или заметили неточность - пожалуйста сообщите нам!
Спасибо!
Команда XR-STAFF
Название аэропортаКазань
Название аэропорта (англ.)Kazan
Превышение413 ft. (125.9 m.)
Координаты55°36.498', 49°16.668'
Высота перехода900m
Эшелон переходаQFE>=749mm:FL050; QFE<749=>722:FL060; QFE<722:FL070
Коды ответчика6732-6737
Зона ОрВДСамара РПИ (UWWW)
Данные METARUWKD 171630Z 31002MPS 9999 -SHRA BKN037CB 11/07 Q1000 R29/1/0060 NOSIG RMK QFE739/0986
Проноз погоды (TAF)UWKD 171357Z 1715/1815 22003MPS 9999 BKN016 TX13/1715Z TN06/1801Z TEMPO 1715/1719 6000 -SHRA BKN020CB TEMPO 1809/1815 6000 -SHRA BKN020CB
NOTAMshow/hide NOTAM
AWOS   TABLE

Информация о ВПП

ВПП Длина ВПП (м.) Покрытие Курс ВПП Частота ILS
113750Цементобетон112110.5
293750Цементобетон292111.7

Диспетчерские позиции

Позывной Наименование органа УВД Частота
UWKD_R_APPКазань-Круг119.400
UWKD_TWRКазань-Старт120.300
UWKD_GNDКазань-Руление121.7
UWKD_APPКазань - Подход128.625



Спутниковое изображение